FW4559 Weather Reports


Display with metric or nautical units.
time (UTC)temp
F
wind
direction
speed
MPH
gust
MPH
rain 1hr
in
rain 24hr
in
rain mn
in
humidity
%
barometer
mb
20260831200537 78 197 0.0 4.0 0.00 0.01 0.01 73 1019.1
20260831200038 77 205 0.0 3.0 0.00 0.01 0.01 76 1019.2
20260831195537 76 171 0.0 4.0 0.00 0.01 0.01 77 1019.3
20260831195039 76 190 1.0 3.0 0.00 0.01 0.01 79 1019.4
20260831194549 76 166 0.0 7.0 0.00 0.01 0.01 79 1019.4
20260831194038 76 190 0.0 8.0 0.00 0.01 0.01 79 1019.4
20260831193536 77 245 2.0 8.0 0.00 0.01 0.01 77 1019.5
20260831193035 78 142 1.0 5.0 0.00 0.01 0.01 77 1019.6
20260831192535 78 120 1.0 6.0 0.00 0.01 0.01 75 1019.6
20260831192034 79 190 0.0 8.0 0.00 0.01 0.01 73 1019.7
20260831191536 80 149 0.0 8.0 0.00 0.01 0.01 70 1019.7
20260831191039 81 192 1.0 6.0 0.00 0.01 0.01 69 1019.7
20260831190534 81 124 0.0 2.0 0.00 0.01 0.01 66 1019.7
20260831190034 82 178 0.0 2.0 0.00 0.01 0.01 65 1019.8
20260831185534 82 191 0.0 3.0 0.00 0.01 0.01 66 1019.8
20260831185034 82 240 1.0 3.0 0.00 0.01 0.01 66 1019.8
20260831184533 81 166 0.0 1.0 0.00 0.01 0.01 67 1019.7
20260831184032 80 153 0.0 1.0 0.00 0.01 0.01 68 1019.8
20260831183532 80 144 0.0 2.0 0.00 0.01 0.01 67 1019.8
20260831183032 80 127 0.0 3.0 0.00 0.01 0.01 67 1019.8
20260831182532 79 198 0.0 3.0 0.00 0.01 0.01 66 1019.7
20260831182035 79 105 0.0 3.0 0.00 0.01 0.01 66 1019.7
20260831181532 80 150 0.0 5.0 0.00 0.01 0.01 65 1019.7
20260831181031 81 51 0.0 6.0 0.00 0.01 0.01 62 1019.7
20260831180530 82 338 0.0 5.0 0.00 0.01 0.01 59 1019.7
20260831180030 82 53 1.0 5.0 0.00 0.01 0.01 60 1019.8
20260831175530 81 127 0.0 5.0 0.00 0.01 0.01 63 1019.9
20260831175030 81 350 1.0 5.0 0.00 0.01 0.01 62 1020.0
20260831174532 81 354 1.0 3.0 0.00 0.01 0.01 64 1020.1
20260831174029 80 20 0.0 4.0 0.00 0.01 0.01 68 1020.1
20260831173530 79 20 0.0 4.0 0.00 0.01 0.01 67 1020.2
20260831173028 79 84 0.0 4.0 0.00 0.01 0.01 67 1020.1
20260831172529 79 343 2.0 7.0 0.00 0.01 0.01 66 1020.1
20260831172029 79 48 0.0 7.0 0.00 0.01 0.01 68 1020.2
20260831171528 79 346 2.0 6.0 0.00 0.01 0.01 67 1020.4
20260831171028 79 9 1.0 6.0 0.00 0.01 0.01 66 1020.4
20260831170527 79 357 0.0 6.0 0.00 0.01 0.01 66 1020.4
20260831170027 80 20 1.0 6.0 0.00 0.01 0.01 65 1020.3
20260831165527 81 79 0.0 3.0 0.00 0.01 0.01 66 1020.3
20260831165026 81 8 1.0 3.0 0.00 0.01 0.01 63 1020.3
20260831164526 81 115 0.0 1.0 0.00 0.01 0.01 68 1020.4
20260831164026 81 115 0.0 3.0 0.00 0.01 0.01 63 1020.4
20260831163526 81 9 0.0 6.0 0.00 0.01 0.01 62 1020.4
20260831163030 83 334 2.0 6.0 0.00 0.01 0.01 58 1020.4
20260831162525 84 348 0.0 2.0 0.00 0.01 0.01 61 1020.4
20260831162023 83 76 0.0 6.0 0.00 0.01 0.01 63 1020.4
20260831161530 83 23 2.0 6.0 0.00 0.01 0.01 57 1020.5
20260831161023 82 108 0.0 2.0 0.00 0.01 0.01 63 1020.5
20260831160523 81 340 0.0 3.0 0.00 0.01 0.01 64 1020.6
20260831160022 81 340 0.0 3.0 0.00 0.01 0.01 61 1020.6
20260831155523 82 359 0.0 2.0 0.00 0.01 0.01 61 1020.6
20260831155022 83 271 0.0 1.0 0.00 0.01 0.01 59 1020.6
20260831154520 82 252 0.0 1.0 0.00 0.01 0.01 63 1020.6
20260831154023 80 315 0.0 4.0 0.00 0.01 0.01 65 1020.7
20260831153520 79 274 0.0 4.0 0.00 0.01 0.01 68 1020.7
20260831153019 79 338 0.0 6.0 0.00 0.01 0.01 67 1020.7
20260831152519 79 7 2.0 6.0 0.00 0.01 0.01 65 1020.6
20260831152021 79 51 0.0 6.0 0.00 0.01 0.01 68 1020.6
20260831151521 78 43 0.0 6.0 0.00 0.01 0.01 67 1020.7
20260831151020 78 8 2.0 5.0 0.00 0.01 0.01 66 1020.6
20260831150517 78 344 1.0 6.0 0.00 0.01 0.01 66 1020.6
20260831150016 78 1 0.0 7.0 0.00 0.01 0.01 66 1020.6
20260831145516 79 343 2.0 7.0 0.00 0.01 0.01 67 1020.5
20260831145016 79 352 0.0 3.0 0.00 0.01 0.01 71 1020.5
20260831144515 79 1 1.0 3.0 0.00 0.01 0.01 71 1020.5
20260831144015 79 11 0.0 2.0 0.00 0.01 0.01 71 1020.4
20260831143515 80 349 0.0 2.0 0.00 0.01 0.01 70 1020.5
20260831143014 82 1 0.0 1.0 0.00 0.01 0.01 69 1020.5
20260831142516 81 221 0.0 1.0 0.00 0.01 0.01 71 1020.4
20260831142010 80 221 0.0 0.0 0.01 0.01 0.01 74 1020.4
20260831141510 79 221 0.0 1.0 0.01 0.01 0.01 75 1020.4
20260831141008 78 221 0.0 1.0 0.01 0.01 0.01 78 1020.3
20260831140510 77 221 0.0 1.0 0.01 0.01 0.01 78 1020.4
20260831140005 77 221 0.0 1.0 0.01 0.01 0.01 78 1020.5
20260831135504 77 221 0.0 0.0 0.01 0.01 0.01 81 1020.5
20260831135003 76 221 0.0 0.0 0.01 0.01 0.01 83 1020.5
20260831134502 74 221 0.0 1.0 0.01 0.01 0.01 85 1020.6
20260831134059 74 221 0.0 1.0 0.01 0.01 0.01 87 1020.6
20260831133558 73 222 0.0 1.0 0.01 0.01 0.01 88 1020.7
20260831133057 73 221 0.0 1.0 0.01 0.01 0.01 91 1020.7
20260831132556 72 221 0.0 1.0 0.01 0.01 0.01 93 1020.7
20260831132055 70 221 0.0 0.0 0.00 0.00 0.00 95 1020.8
20260831131556 68 222 0.0 0.0 0.00 0.00 0.00 96 1020.8
20260831131053 68 221 0.0 0.0 0.00 0.00 0.00 96 1020.8
20260831130551 68 221 0.0 0.0 0.00 0.00 0.00 96 1020.8
20260831130104 68 221 0.0 0.0 0.00 0.00 0.00 96 1020.8
20260831125549 67 221 0.0 0.0 0.00 0.00 0.00 96 1020.8
20260831125048 66 221 0.0 0.0 0.00 0.00 0.00 96 1020.7
20260831124547 66 221 0.0 0.0 0.00 0.00 0.00 96 1020.8
20260831124046 65 221 0.0 0.0 0.00 0.00 0.00 96 1020.7
20260831123546 64 221 0.0 0.0 0.00 0.00 0.00 96 1020.6
20260831123045 63 221 0.0 0.0 0.00 0.00 0.00 96 1020.7
20260831122544 62 222 0.0 0.0 0.00 0.00 0.00 96 1020.6
20260831122048 61 221 0.0 0.0 0.00 0.00 0.00 96 1020.6
20260831121545 60 222 0.0 0.0 0.00 0.00 0.00 96 1020.7
20260831121044 60 222 0.0 0.0 0.00 0.00 0.00 96 1020.7
20260831120544 60 222 0.0 0.0 0.00 0.00 0.00 96 1020.6
20260831120044 60 221 0.0 0.0 0.00 0.00 0.00 96 1020.8
20260831115543 59 222 0.0 0.0 0.00 0.00 0.00 96 1020.7
20260831115043 59 222 0.0 0.0 0.00 0.00 0.00 96 1020.8
20260831114543 59 221 0.0 0.0 0.00 0.00 0.00 96 1020.7
20260831114043 59 221 0.0 0.0 0.00 0.00 0.00 96 1020.6
20260831113542 59 222 0.0 0.0 0.00 0.00 0.00 96 1020.7
20260831113041 59 221 0.0 0.0 0.00 0.00 0.00 96 1020.6
20260831112541 59 222 0.0 0.0 0.00 0.00 0.00 96 1020.6
20260831112040 59 222 0.0 0.0 0.00 0.00 0.00 96 1020.6
20260831111540 59 221 0.0 0.0 0.00 0.00 0.00 96 1020.5
20260831111039 59 221 0.0 0.0 0.00 0.00 0.00 96 1020.3
20260831110538 59 222 0.0 0.0 0.00 0.00 0.00 96 1020.4
20260831110040 59 222 0.0 0.0 0.00 0.00 0.00 96 1020.3
20260831105541 59 221 0.0 0.0 0.00 0.00 0.00 96 1020.2
20260831105109 59 221 0.0 0.0 0.00 0.00 0.00 96 1020.3
20260831104540 59 222 0.0 0.0 0.00 0.00 0.00 96 1020.1
20260831104036 59 221 0.0 0.0 0.00 0.00 0.00 96 1020.0
20260831103536 59 221 0.0 0.0 0.00 0.00 0.00 96 1020.0
20260831103039 60 221 0.0 0.0 0.00 0.00 0.00 96 1019.9
20260831102535 60 221 0.0 0.0 0.00 0.00 0.00 96 1019.9
20260831102036 60 222 0.0 0.0 0.00 0.00 0.00 96 1019.9
20260831101535 60 221 0.0 0.0 0.00 0.00 0.00 96 1019.9
20260831101034 60 222 0.0 0.0 0.00 0.00 0.00 96 1019.8
20260831100534 60 221 0.0 0.0 0.00 0.00 0.00 96 1019.7
20260831100033 60 222 0.0 0.0 0.00 0.00 0.00 96 1019.8
20260831095532 60 221 0.0 0.0 0.00 0.00 0.00 96 1019.6
20260831095032 60 221 0.0 0.0 0.00 0.00 0.00 96 1019.6
20260831094532 60 221 0.0 0.0 0.00 0.00 0.00 96 1019.6
20260831094031 60 222 0.0 0.0 0.00 0.00 0.00 96 1019.5
20260831093531 61 222 0.0 0.0 0.00 0.00 0.00 96 1019.5
20260831093030 60 222 0.0 0.0 0.00 0.00 0.00 96 1019.5
20260831092533 61 221 0.0 0.0 0.00 0.00 0.00 96 1019.5
20260831092030 61 221 0.0 0.0 0.00 0.00 0.00 96 1019.6
20260831091530 61 222 0.0 0.0 0.00 0.00 0.00 96 1019.5
20260831091030 61 222 0.0 0.0 0.00 0.00 0.00 96 1019.5
20260831090529 61 222 0.0 0.0 0.00 0.00 0.00 96 1019.5
20260831090033 61 222 0.0 0.0 0.00 0.00 0.00 96 1019.5
20260831085528 61 221 0.0 0.0 0.00 0.00 0.00 96 1019.5
20260831085027 61 221 0.0 0.0 0.00 0.00 0.00 96 1019.5
20260831084527 61 222 0.0 0.0 0.00 0.00 0.00 96 1019.4
20260831084027 61 222 0.0 0.0 0.00 0.00 0.00 96 1019.5
20260831083526 61 221 0.0 0.0 0.00 0.00 0.00 96 1019.5
20260831083036 61 222 0.0 0.0 0.00 0.00 0.00 96 1019.5
20260831082525 62 222 0.0 0.0 0.00 0.00 0.00 96 1019.6
20260831082029 62 222 0.0 0.0 0.00 0.00 0.00 96 1019.5
20260831081525 62 222 0.0 0.0 0.00 0.00 0.00 96 1019.5
20260831081026 62 222 0.0 0.0 0.00 0.00 0.00 96 1019.5
20260831080523 62 221 0.0 0.0 0.00 0.00 0.00 96 1019.6
20260831080022 62 222 0.0 0.0 0.00 0.00 0.00 96 1019.6
20260831075522 62 221 0.0 0.0 0.00 0.00 0.00 96 1019.6
20260831075021 62 221 0.0 0.0 0.00 0.00 0.00 96 1019.6
20260831074521 62 222 0.0 0.0 0.00 0.00 0.00 96 1019.6
20260831074021 62 221 0.0 0.0 0.00 0.00 0.00 96 1019.7
20260831073521 62 221 0.0 0.0 0.00 0.00 0.00 96 1019.7
20260831073019 63 221 0.0 0.0 0.00 0.00 0.00 96 1019.7
20260831072519 63 221 0.0 0.0 0.00 0.00 0.00 96 1019.6
20260831072019 63 222 0.0 0.0 0.00 0.00 0.00 96 1019.8
20260831071519 63 221 0.0 0.0 0.00 0.00 0.00 96 1019.7
20260831071019 63 222 0.0 0.0 0.00 0.00 0.00 96 1019.7
20260831070519 63 222 0.0 0.0 0.00 0.00 0.00 96 1019.7
20260831070025 63 221 0.0 0.0 0.00 0.00 0.00 96 1019.7
20260831065620 63 221 0.0 0.0 0.00 0.00 0.00 96 1019.7
20260831065016 63 222 0.0 0.0 0.00 0.00 0.00 96 1019.8
20260831064518 63 221 0.0 0.0 0.00 0.00 0.00 96 1019.8
20260831064017 63 221 0.0 0.0 0.00 0.00 0.00 96 1019.8
20260831063516 63 221 0.0 0.0 0.00 0.00 0.00 96 1019.8
20260831063016 63 221 0.0 0.0 0.00 0.00 0.00 96 1019.8
20260831062515 63 221 0.0 0.0 0.00 0.00 0.00 96 1020.0
20260831062015 63 221 0.0 0.0 0.00 0.00 0.00 96 1019.9
20260831061515 63 222 0.0 0.0 0.00 0.00 0.00 96 1019.9
20260831061013 63 222 0.0 0.0 0.00 0.00 0.00 96 1019.9
20260831060512 63 222 0.0 0.0 0.00 0.00 0.00 96 1019.8
20260831060012 63 222 0.0 0.0 0.00 0.00 0.00 96 1020.0
20260831055511 63 222 0.0 0.0 0.00 0.00 0.00 96 1020.1
20260831055011 63 221 0.0 0.0 0.00 0.00 0.00 96 1020.1
20260831054511 64 221 0.0 0.0 0.00 0.00 0.00 96 1020.2
20260831054012 63 222 0.0 0.0 0.00 0.00 0.00 96 1020.2
20260831053509 63 221 0.0 0.0 0.00 0.00 0.00 96 1020.3
20260831053010 63 221 0.0 0.0 0.00 0.00 0.00 96 1020.2
20260831052509 63 222 0.0 0.0 0.00 0.00 0.00 96 1020.1
20260831052008 63 221 0.0 0.0 0.00 0.00 0.00 96 1020.2
20260831051509 63 221 0.0 0.0 0.00 0.00 0.00 96 1020.3
20260831051008 63 222 0.0 0.0 0.00 0.00 0.00 96 1020.3
20260831050507 64 221 0.0 0.0 0.00 0.00 0.00 96 1020.1
20260831050006 64 221 0.0 0.0 0.00 0.00 0.00 96 1020.2
20260831045509 64 221 0.0 0.0 0.00 0.00 0.00 96 1020.0
20260831045007 64 222 0.0 0.0 0.00 0.00 0.00 96 1020.1
20260831044506 64 222 0.0 0.0 0.00 0.00 0.00 96 1019.9
20260831044005 64 221 0.0 0.0 0.00 0.00 0.00 96 1020.1
20260831043507 64 222 0.0 0.0 0.00 0.00 0.00 96 1020.0
20260831043005 64 221 0.0 0.0 0.00 0.00 0.00 96 1020.1
20260831042507 64 222 0.0 0.0 0.00 0.00 0.00 95 1020.3
20260831042003 64 222 0.0 0.0 0.00 0.00 0.00 95 1020.2
20260831041502 64 221 0.0 0.0 0.00 0.00 0.00 96 1020.3
20260831041005 64 221 0.0 0.0 0.00 0.00 0.00 96 1020.3
20260831040501 64 221 0.0 0.0 0.00 0.00 0.00 96 1020.5
20260831040100 64 222 0.0 0.0 0.00 0.00 0.00 96 1020.4
20260831035600 64 222 0.0 0.0 0.00 0.00 0.00 96 1020.4
20260831035059 64 221 0.0 0.0 0.00 0.00 0.00 96 1020.5
20260831034600 64 221 0.0 0.0 0.00 0.00 0.00 96 1020.4
20260831034059 64 221 0.0 0.0 0.00 0.00 0.00 96 1020.5
20260831033558 64 222 0.0 0.0 0.00 0.00 0.00 96 1020.6
20260831033058 64 221 0.0 0.0 0.00 0.00 0.00 96 1020.7
20260831032559 65 222 0.0 0.0 0.00 0.00 0.00 96 1020.6
20260831032100 65 221 0.0 0.0 0.00 0.00 0.00 96 1020.6
20260831031559 65 222 0.0 0.0 0.00 0.00 0.00 96 1020.7
20260831031057 65 221 0.0 0.0 0.00 0.00 0.00 96 1020.8
20260831030600 65 221 0.0 0.0 0.00 0.00 0.00 96 1020.7
20260831025557 65 221 0.0 1.0 0.00 0.00 0.00 96 1020.5
20260831025057 65 221 0.0 1.0 0.00 0.00 0.00 95 1020.5
20260831024617 65 221 0.0 1.0 0.00 0.00 0.00 95 1020.6
20260831024056 65 222 0.0 0.0 0.00 0.00 0.00 95 1020.4
20260831023557 65 221 0.0 0.0 0.00 0.00 0.00 95 1020.4
20260831023056 65 221 0.0 0.0 0.00 0.00 0.00 95 1020.4
20260831022556 65 221 0.0 0.0 0.00 0.00 0.00 95 1020.5
20260831022055 65 221 0.0 0.0 0.00 0.00 0.00 95 1020.4
20260831021556 65 221 0.0 0.0 0.00 0.00 0.00 95 1020.3
20260831021055 65 221 0.0 0.0 0.00 0.00 0.00 95 1020.1
20260831020555 66 222 0.0 0.0 0.00 0.00 0.00 95 1020.1
20260831020052 66 221 0.0 0.0 0.00 0.00 0.00 95 1020.3
20260831015550 65 221 0.0 0.0 0.00 0.00 0.00 95 1020.3
20260831015050 66 222 0.0 0.0 0.00 0.00 0.00 95 1020.5
20260831014548 66 221 0.0 0.0 0.00 0.00 0.00 95 1020.4
20260831014049 66 221 0.0 0.0 0.00 0.00 0.00 95 1020.4
20260831013547 66 221 0.0 0.0 0.00 0.00 0.00 95 1020.3
20260831013104 66 221 0.0 0.0 0.00 0.00 0.00 95 1020.2
20260831012547 66 221 0.0 0.0 0.00 0.00 0.00 94 1020.0
20260831012047 66 221 0.0 0.0 0.00 0.00 0.00 94 1020.2
20260831011554 66 221 0.0 0.0 0.00 0.00 0.00 94 1020.0
20260831011046 67 222 0.0 0.0 0.00 0.00 0.00 94 1020.0
20260831010547 67 222 0.0 0.0 0.00 0.00 0.00 94 1019.9
20260831010114 67 222 0.0 0.0 0.00 0.00 0.00 94 1019.9
20260831005545 67 222 0.0 0.0 0.00 0.00 0.00 94 1019.8
20260831005045 67 222 0.0 0.0 0.00 0.00 0.00 94 1019.6
20260831004547 67 222 0.0 0.0 0.00 0.00 0.00 93 1019.5
20260831004045 68 222 0.0 0.0 0.00 0.00 0.00 93 1019.7
20260831003544 68 222 0.0 0.0 0.00 0.00 0.00 93 1019.6
20260831003045 68 221 0.0 0.0 0.00 0.00 0.00 92 1019.6
20260831002545 68 221 0.0 0.0 0.00 0.00 0.00 92 1019.5
20260831002045 69 222 0.0 0.0 0.00 0.00 0.00 91 1019.6
20260831001545 69 222 0.0 0.0 0.00 0.00 0.00 91 1019.5
20260831001046 69 221 0.0 0.0 0.00 0.00 0.00 90 1019.5
20260831000543 70 222 0.0 0.0 0.00 0.00 0.00 90 1019.5
20260831000056 70 221 0.0 0.0 0.00 0.00 0.00 89 1019.4
20260830235542 71 222 0.0 0.0 0.00 0.00 0.00 89 1019.5
20260830235042 71 222 0.0 0.0 0.00 0.00 0.00 88 1019.6
20260830234542 71 221 0.0 0.0 0.00 0.00 0.00 87 1019.5
20260830234043 72 221 0.0 0.0 0.00 0.00 0.00 87 1019.5
20260830233543 72 222 0.0 0.0 0.00 0.00 0.00 86 1019.4
20260830233043 72 221 0.0 0.0 0.00 0.00 0.00 85 1019.3
20260830232548 73 222 0.0 0.0 0.00 0.00 0.00 85 1019.3
20260830232045 73 221 0.0 0.0 0.00 0.00 0.00 84 1019.2
20260830231544 73 222 0.0 2.0 0.00 0.00 0.00 83 1019.3
20260830231041 73 222 0.0 2.0 0.00 0.00 0.00 83 1019.4
20260830230541 74 170 0.0 2.0 0.00 0.00 0.00 82 1019.4
20260830230050 74 170 0.0 2.0 0.00 0.00 0.00 81 1019.4
20260830225541 74 217 0.0 3.0 0.00 0.00 0.00 81 1019.3
20260830225040 75 233 0.0 3.0 0.00 0.00 0.00 81 1019.2
20260830224540 74 158 1.0 3.0 0.00 0.00 0.00 81 1019.3
20260830224040 74 189 0.0 3.0 0.00 0.00 0.00 83 1019.2
20260830223542 74 188 0.0 3.0 0.00 0.00 0.00 82 1019.2
20260830223059 74 126 0.0 2.0 0.00 0.00 0.00 84 1019.3
20260830222542 73 195 0.0 2.0 0.00 0.00 0.00 85 1019.2
20260830222039 73 181 0.0 2.0 0.00 0.00 0.00 84 1019.2
20260830221539 73 219 0.0 1.0 0.00 0.00 0.00 84 1019.3
20260830221041 73 119 0.0 2.0 0.00 0.00 0.00 85 1019.4
20260830220539 73 191 0.0 2.0 0.00 0.00 0.00 84 1019.4
20260830220042 73 153 0.0 2.0 0.00 0.00 0.00 84 1019.4
20260830215539 73 226 0.0 2.0 0.00 0.00 0.00 84 1019.4
20260830215040 74 179 0.0 2.0 0.00 0.00 0.00 83 1019.4
20260830214538 74 179 1.0 2.0 0.00 0.00 0.00 83 1019.3
20260830214037 74 167 0.0 2.0 0.00 0.00 0.00 82 1019.4
20260830213538 74 169 0.0 2.0 0.00 0.00 0.00 82 1019.4
20260830213039 74 116 0.0 2.0 0.00 0.00 0.00 82 1019.3
20260830212537 74 134 0.0 4.0 0.00 0.00 0.00 82 1019.5
20260830212038 74 131 0.0 4.0 0.00 0.00 0.00 81 1019.4
20260830211537 74 153 0.0 2.0 0.00 0.00 0.00 81 1019.4
20260830211038 74 143 0.0 6.0 0.00 0.00 0.00 81 1019.3
20260830210538 74 153 0.0 6.0 0.00 0.00 0.00 80 1019.4
20260830210038 75 163 0.0 3.0 0.00 0.00 0.00 79 1019.3
20260830205536 75 139 0.0 3.0 0.00 0.00 0.00 79 1019.3
20260830205036 75 136 0.0 3.0 0.00 0.00 0.00 78 1019.3
20260830204537 75 139 1.0 3.0 0.00 0.00 0.00 77 1019.3
20260830204037 76 164 0.0 2.0 0.00 0.00 0.00 78 1019.4
20260830203535 76 208 0.0 4.0 0.00 0.00 0.00 77 1019.4
20260830203037 76 118 0.0 4.0 0.00 0.00 0.00 77 1019.4
20260830202538 76 188 0.0 2.0 0.00 0.00 0.00 77 1019.3
20260830202034 76 159 0.0 2.0 0.00 0.00 0.00 78 1019.4
20260830201537 76 123 0.0 2.0 0.00 0.00 0.00 77 1019.5
20260830201034 77 158 0.0 2.0 0.00 0.00 0.00 76 1019.5